952  
ASUS44 KFWD 131315  
RWRFWD  
NORTH TEXAS HOURLY WEATHER ROUNDUP  
NATIONAL WEATHER SERVICE FORT WORTH TX  
700 AM CST FRI DEC 13 2019  
 
NOTE: "FAIR" INDICATES FEW OR NO CLOUDS BELOW 12,000 FEET WITH NO  
SIGNIFICANT WEATHER AND/OR S TO VISIBILITY
.  
 
TXZ118-119-131400-  
DALLAS/FORT WORTH METROPLEX  
 
CITY SKY/WX TMP DP RH WIND PRES REMARKS
 
DFW AIRPORT CLEAR 40 39 97 S3 29.88R  
DALLAS LOVE PTCLDY 45 41 86 S6 29.90S  
FTW MEACHAM NOT AVBL  
DAL-EXECUTIVE CLEAR 44 39 82 SW7 29.88F  
FTW-ALLIANCE CLEAR 39 36 89 CALM 29.88R FOG  
FTW-NAS-JRB PTCLDY 45 37 73 S6 29.90R  
FTW-SPINKS CLEAR 41 39 93 S6 29.90S WCI 37  
ARLINGTON CLEAR 44 40 85 S5 29.90R  
GRAND PRAIRIE CLEAR 43 40 86 S6 29.91R WCI 40  
ADDISON CLEAR 43 41 93 S5 29.90S  
MESQUITE PTCLDY 41 39 93 S5 29.91S FOG WCI 38  
LANCASTER CLEAR 41 41 97 S6 29.91S FOG WCI 38  

 
 
TXZ091>094-102>105-117-120-121-131>134-131400-  
NORTH CENTRAL TEXAS  
 
CITY SKY/WX TMP DP RH WIND PRES REMARKS
 
SHRMAN/DENISON CLOUDY 41 39 93 E3 29.91S FOG  
GAINESVILLE CLOUDY 36 36 99 CALM 29.91S FOG  
BOWIE FOG 37 37 99 CALM 29.88F VSB<1/4  
BRIDGEPORT N/A N/A N/A N/A CALM 29.91R FOG  
DECATUR FOG 38 36 94 CALM 29.88S VSB 1  
DENTON FOG 33 32 96 CALM 29.89R VSB 1/2  
MCKINNEY MOCLDY 40 39 97 S3 29.89S FOG  
BONHAM CLOUDY 38 38 99 N6 29.92R FOG WCI 34  
GREENVILLE CLEAR 45 45 100 CALM 29.91R FOG  
ROCKWALL CLEAR 43 43 100 S8 29.90R WCI 38  
TERRELL CLEAR 45 43 93 S8 29.91F FOG  
WAXAHACHIE CLEAR 41 41 100 S8 29.91S WCI 36  
CLEBURNE CLEAR 41 41 100 S7 29.90F WCI 36  
GRANBURY CLEAR 38 36 92 S5 29.90F WCI 34  

 
 
TXZ083>090-098>101-113>116-127>130-139>142-154-155-131400-  
WESTERN NORTH TEXAS  
 
CITY SKY/WX TMP DP RH WIND PRES REMARKS
 
WICHITA FALLS CLEAR 32 32 100 N6 29.90R WCI 26  
WF-KICKAPOO CLEAR 35 33 94 N3 29.92S  
VERNON CLEAR 32 31 97 NW5 29.92S WCI 28  
ABILENE CLEAR 41 37 86 W6 29.92R WCI 37  
ABILENE-DYESS CLEAR 45 33 64 W6 29.90R  
GRAHAM CLEAR 32 32 100 CALM 29.88R  
BRECKENRIDGE CLEAR 43 42 97 MISG 29.89R  
CISCO CLEAR 45 41 87 W8 29.88F  
EASTLAND CLEAR 31 30 98 CALM 29.89R  
RANGER CLEAR 43 40 89 SW3 29.88F  
MINERAL WELLS CLEAR 37 36 96 CALM 29.87S  
STEPHENVILLE CLEAR 46 40 82 SW6 29.91F  
COMANCHE CLEAR 49 42 78 W14 29.90R  
BROWNWOOD CLEAR 32 32 100 CALM 29.92S  
COLEMAN CLEAR 46 39 76 W12 29.92R  
BRADY CLEAR 46 39 76 W10 29.93S  

 
 
TXZ143>147-156>162-174-175-131400-  
CENTRAL TEXAS  
 
CITY SKY/WX TMP DP RH WIND PRES REMARKS
 
WACO CLEAR 40 37 89 E5 29.93R WCI 37  
WACO-TSTC CLEAR 43 43 100 S7 29.94 WCI 39  
WACO-MCGREGOR CLEAR 42 38 85 S7 29.94R WCI 38  
HILLSBORO CLEAR 41 41 100 S6 29.91S WCI 38  
CORSICANA CLEAR 46 45 96 S9 29.93F FOG  
MEXIA FOG 46 45 98 S13 29.93S VSB 1/4 WCI 40  
HEARNE CLOUDY 53 52 97 S5 29.97F FOG  
CAMERON FOG 50 49 97 S8 29.96R VSB 3/4  
TEMPLE CLEAR 42 42 100 S9 29.94R WCI 37  
KILLEEN CLEAR 47 39 76 SW9 29.91R  
KILLEEN-SKYLRK CLEAR 40 37 89 SW3 29.93S  
FORT HOOD CLEAR 40 37 87 S3 29.93R  
GATESVILLE CLEAR 41 37 87 CALM 29.94S  
HAMILTON CLEAR 46 40 81 SW7 29.90F  

 
 
TXZ095>097-106>112-122>126-135>138-148>153-164>167-131400-  
EAST TEXAS  
 
CITY SKY/WX TMP DP RH WIND PRES REMARKS
 
PARIS CLOUDY 41 38 89 E7 29.92S WCI 36  
SULPHUR SPRNGS CLEAR 46 43 92 S5 29.94R  
MOUNT PLEASANT PTCLDY 44 39 83 SE6 29.94F  
GILMER CLOUDY 45 40 84 S6 29.94F  
MINEOLA CLEAR 36 36 100 E3 29.92F FOG  
TYLER CLEAR 45 41 86 S12 29.93S WCI 39  
LONGVIEW MOCLDY 42 38 85 CALM 29.94F  
MARSHALL CLOUDY 45 42 90 CALM 29.98F  
ATHENS CLOUDY 48 46 93 S7 29.93S  
PALESTINE PTCLDY 46 45 97 SE5 29.95F  
JACKSONVILLE CLOUDY 47 44 89 S9 29.95F  
HENDERSON CLOUDY 43 41 90 CALM 29.96S  
CENTER CLOUDY 44 42 93 CALM 29.99  
NACOGDOCHES MOCLDY 45 45 100 E5 29.98F  
LUFKIN CLOUDY 48 43 82 SE3 29.98S  

 
 
SUPPLEMENTAL OBSERVATIONS (NWS FORT WORTH AREA)  
 
CITY SKY/WX TMP DP RH WIND PRES REMARKS
 
CADDO GRASSLND N/A 36 32 87 CALM N/A  
LBJ GRASSLAND N/A 37 36 93 CALM N/A  
POSSUM KINGDOM N/A 39 36 87 W5 N/A WCI 36  
GRANBURY N/A 37 36 93 S3 N/A  
COMANCHE N/A 48 39 71 W15 N/A  
MCGREGOR N/A 41 37 87 S5 N/A WCI 38  
TEMPLE N/A 43 39 87 S5 N/A  
LAKE LIMESTONE N/A 54 52 94 S10 N/A  
PALESTINE N/A 46 43 87 S3 N/A  

 
 
SUPPLEMENTAL OBSERVATIONS (NWS NORMAN AREA)  
 
CITY SKY/WX TMP DP RH WIND PRES REMARKS
 
GOODLETT N/A 33 32 93 W8 29.91 WCI 27  
ODELL N/A 30 29 96 NW6 29.93 WCI 24  
CROWELL N/A 35 33 92 NW9 29.92 WCI 28  
KNOX CITY N/A 35 33 94 W5 29.92 WCI 31  
SEYMOUR N/A 31 31 97 NW5 29.91 WCI 27  
MILLERS CREEK N/A 32 32 100 NW5 N/A WCI 27  

 
 
SUPPLEMENTAL OBSERVATIONS (NWS SAN ANGELO AREA)  
 
CITY SKY/WX TMP DP RH WIND PRES REMARKS
 
WEINERT N/A 32 31 93 NW2 29.92  
HASKELL N/A 36 33 89 NW9 29.90 WCI 29  
THROCKMORTON N/A 38 37 95 W3 29.90  
STAMFORD N/A 37 35 92 W3 29.92  
CLYDE N/A 40 37 90 W7 29.90 WCI 35  
HAMBY N/A 37 34 87 CALM N/A  

 
 
SUPPLEMENTAL OBSERVATIONS (NWS SHREVEPORT AREA)  
 
CITY SKY/WX TMP DP RH WIND PRES REMARKS
 
TEXARKANA N/A 39 36 87 CALM N/A  
LINDEN N/A 43 37 81 E1 N/A  
CADDO LAKE N/A 43 41 93 CALM N/A  
LUFKIN N/A 46 43 87 MISG N/A  
N SABINE NF N/A 45 41 87 MISG N/A  

 
 
SUPPLEMENTAL OBSERVATIONS ARE A COLLECTION OF AUTOMATED INSTRUMENTS  
THAT ARE MAINTAINED BY A VARIETY OF FEDERAL AND STATE AGENCIES.  
CERTAIN ELEMENTS...SUCH AS HUMIDITY VALUES AND SUSTAINED WIND  
SPEEDS...MAY BE APPROXIMATED.  
 
 
 
CLICK HERE TO GO TO PREVIOUS BULLETINS.

The Nexlab TX Page Main Text Page